This is the latest recevied weather packets stored in our database for station/object W4NDF-13. If no packets are shown the sender has not sent any weather packets the latest 10 day(s).
| Time | Temp. | Humidity | Pressure | Rain* | Wind** | Luminosity | Snow |
|---|---|---|---|---|---|---|---|
| 1777986857 | 22.78° C | 80% | 1013.8 hPa | 0 mm | - | 214 W/m² | - |
| 1777986555 | 22.22° C | 79% | 1013.9 hPa | 0 mm | - | 209 W/m² | - |
| 1777986252 | 22.22° C | 80% | 1014 hPa | 0 mm | - | 198 W/m² | - |
| 1777985949 | 21.67° C | 81% | 1014.1 hPa | 0 mm | - | 120 W/m² | - |
| 1777985647 | 21.67° C | 81% | 1014.1 hPa | 0 mm | - | 109 W/m² | - |
| 1777985343 | 21.67° C | 81% | 1014 hPa | 0 mm | - | 98 W/m² | - |
| 1777985040 | 21.67° C | 81% | 1013.9 hPa | 0 mm | - | 82 W/m² | - |
| 1777984736 | 21.11° C | 81% | 1013.6 hPa | 0 mm | - | 79 W/m² | - |
| 1777984433 | 21.11° C | 82% | 1013.6 hPa | 0 mm | - | 73 W/m² | - |
| 1777984129 | 21.11° C | 82% | 1013.6 hPa | 0 mm | - | 66 W/m² | - |
| 1777983826 | 20.56° C | 83% | 1013.5 hPa | 0 mm | - | 60 W/m² | - |
| 1777983523 | 20.56° C | 84% | 1013.5 hPa | 0 mm | - | 48 W/m² | - |
| 1777983220 | 20.56° C | 85% | 1013.4 hPa | 0 mm | - | 47 W/m² | - |
| 1777982916 | 20° C | 84% | 1013.3 hPa | 0 mm | - | 49 W/m² | - |
| 1777982612 | 20° C | 85% | 1013.4 hPa | 0 mm | - | 45 W/m² | - |
| 1777982311 | 20° C | 85% | 1013.2 hPa | 0 mm | - | 42 W/m² | - |
| 1777982008 | 20° C | 86% | 1013.3 hPa | 0 mm | - | 33 W/m² | - |
| 1777981706 | 19.44° C | 87% | 1013.6 hPa | 0 mm | - | 27 W/m² | - |
| 1777981402 | 19.44° C | 87% | 1013.4 hPa | 0 mm | - | 22 W/m² | - |
| 1777981099 | 19.44° C | 87% | 1013.5 hPa | 0 mm | - | 18 W/m² | - |
| 1777980795 | 19.44° C | 87% | 1013.5 hPa | 0 mm | - | 13 W/m² | - |
| 1777980491 | 19.44° C | 87% | 1013.6 hPa | 0 mm | - | 9 W/m² | - |
| 1777980189 | 18.89° C | 88% | 1013.5 hPa | 0 mm | - | 5 W/m² | - |
| 1777979884 | 18.89° C | 88% | 1013.5 hPa | 0 mm | - | 3 W/m² | - |
| 1777979580 | 18.89° C | 88% | 1013.4 hPa | 0 mm | - | 1 W/m² | - |
* Rain latest hour (hover to see other rain measurements)
** Current wind speed in m/s (hover to see current wind gust speed)